[[{"header":{"parameterUnit":"m.s-1","parameterCategory":1,"la1":30.2991,"la2":30.254,"lo1":-89.0895,"lo2":-89.0444,"dy":0.0017,"dx":0.0017,"nx":28,"ny":28,"refTime":"2025-11-25T09:00:00:Z","depth":0,"parameterNumber":2,"parameterNumberName":"U-component_of_WINDS"},"data":[0,0,0,0,0,0,0,0,0,0,0,0,0,0,0,0,0,0,0,0,0,0,0,0,0,0,0,0,0,0,0,0,0,0,0,0,0,0,0,0,0,0,0,0,0,0,0,0,0,0,0,0,0,0,0,0,0,0,1.0742,1.0742,0,1.0752,1.0752,1.0752,1.0762,1.0762,1.0762,1.0762,1.0772,1.0772,1.0772,0,0,0,0,0,0,0,0,0,0,0,0,0,1.0731,1.0732,1.0742,1.0742,1.0742,1.0752,1.0752,1.0752,1.0762,1.0762,1.0762,1.0763,1.0772,1.0772,1.0772,0,0,0,0,0,0,0,0,0,0,0,0,0,1.0738,1.0732,1.0742,1.0748,1.0749,1.0752,1.0752,1.0752,1.0762,1.0762,1.0762,1.0763,1.0772,1.0772,1.0772,1.0769,0,0,1.0772,1.0772,0,0,0,0,0,0,0,0,1.0738,1.0739,1.0747,1.0748,1.0749,1.0756,1.0752,1.0758,1.0762,1.0757,1.0762,1.0763,1.0766,1.0767,1.0768,1.0769,1.077,1.0772,1.0773,1.0773,1.0773,0,0,0,0,0,0,0,1.0737,1.0738,1.0746,1.0747,1.0748,1.0751,1.0752,1.0753,1.076,1.0757,1.0758,1.0759,1.0767,1.0768,1.0768,1.077,1.0772,1.0773,1.0773,1.0773,1.077,1.077,0,0,0,0,0,0,1.0736,1.0738,1.0746,1.0746,1.0744,1.0751,1.0752,1.0753,1.076,1.0762,1.0759,1.076,1.0768,1.0768,1.0769,1.0766,1.0773,1.0773,1.0773,1.0771,1.077,1.077,0,0,0,0,0,0,1.0736,1.0737,1.0745,1.0742,1.0744,1.0751,1.0752,1.0754,1.0755,1.0762,1.0763,1.0759,1.0768,1.0769,1.0769,1.0767,1.0773,1.0773,1.0771,1.0771,1.077,1.0761,0,0,0,0,0,0,1.0735,1.0736,1.0735,1.0742,1.0744,1.0745,1.0752,1.0754,1.0755,1.0756,1.0762,1.0763,1.0768,1.0769,1.0769,1.0767,1.0773,1.0771,1.0771,1.077,1.0762,1.0761,1.076,0,0,0,0,0,1.0735,1.0732,1.0735,1.0736,1.0742,1.0745,1.0746,1.0752,1.0755,1.0754,1.0759,1.0763,1.0767,1.0769,1.0769,1.0767,1.0771,1.0771,1.077,1.0762,1.0761,1.076,0,0,0,0,0,0,1.0724,1.0733,1.0736,1.0736,1.074,1.0747,1.0746,1.075,1.0753,1.0754,1.0761,1.0762,1.0762,1.0765,1.0766,1.0766,1.077,1.077,1.0763,1.0762,1.0761,1.076,1.0773,0,0,0,0,0,1.0721,1.0723,1.0731,1.0729,1.0731,1.0738,1.0739,1.0744,1.0748,1.075,1.0754,1.0758,1.076,1.0762,1.0764,1.0763,1.0764,1.0761,1.0761,1.076,1.0759,1.0759,1.0758,1.0769,1.0769,1.0769,0,0,1.0716,1.0721,1.0722,1.0727,1.0731,1.0732,1.0739,1.074,1.0742,1.075,1.0751,1.0754,1.0759,1.0759,1.0759,1.0761,1.0757,1.0759,1.0758,1.0758,1.0759,1.0758,1.0757,1.0769,1.0769,1.0769,0,0,1.0707,1.0711,1.0711,1.0715,1.072,1.0725,1.0725,1.0732,1.0735,1.0736,1.0742,1.0744,1.0748,1.0751,1.0753,1.0747,1.0752,1.0748,1.0743,1.0743,1.0742,1.0741,1.0739,1.0738,1.0748,1.0748,1.0748,0,1.07,1.0702,1.071,1.0711,1.0713,1.0722,1.0721,1.0725,1.0731,1.0732,1.0735,1.074,1.0744,1.0745,1.0744,1.0745,1.0746,1.0747,1.0741,1.0741,1.074,1.0738,1.0738,1.0747,1.0747,1.0747,1.0747,0,1.0693,1.0695,1.0694,1.07,1.0703,1.0703,1.0711,1.0712,1.0717,1.0722,1.0723,1.0728,1.0732,1.0733,1.0737,1.0735,1.0736,1.074,1.0745,1.0739,1.0737,1.0736,1.0746,1.0747,1.0747,1.0747,0,0,1.0676,1.0687,1.0687,1.069,1.0698,1.07,1.0701,1.0705,1.0707,1.0711,1.0712,1.0716,1.072,1.0722,1.0727,1.0727,1.0723,1.0731,1.0732,1.073,1.0721,1.0718,1.0717,1.0726,1.0726,1.0726,1.0721,0,1.0668,1.067,1.0678,1.0678,1.068,1.0689,1.069,1.0695,1.07,1.0703,1.0708,1.071,1.0716,1.0717,1.0718,1.0723,1.0721,1.0724,1.0727,1.0727,1.0725,1.0716,1.0712,1.0707,1.072,1.072,1.072,0,1.0658,1.0663,1.0664,1.0672,1.0674,1.0674,1.068,1.0682,1.0688,1.0692,1.0696,1.0701,1.0703,1.0708,1.0711,1.0713,1.0715,1.0718,1.0718,1.0718,1.0723,1.0716,1.0705,1.0704,1.0719,1.0719,1.0719,0,1.0646,1.0652,1.0654,1.0656,1.0666,1.0667,1.0671,1.0678,1.068,1.0685,1.0687,1.0692,1.0694,1.0698,1.0705,1.0708,1.0707,1.0712,1.071,1.071,1.0709,1.0709,1.0699,1.0711,1.0711,1.0711,1.0711,0,1.0636,1.0636,1.0648,1.0649,1.065,1.0659,1.0659,1.0664,1.067,1.0672,1.068,1.0682,1.0692,1.0695,1.07,1.0702,1.0703,1.0706,1.0708,1.0705,1.0705,1.0706,1.0706,1.0711,1.0711,1.0711,1.0711,0,1.0621,1.0629,1.0632,1.0642,1.0644,1.0644,1.0653,1.0654,1.066,1.0663,1.0664,1.0673,1.0677,1.0685,1.0691,1.0695,1.0696,1.0699,1.0694,1.0695,1.0692,1.0692,1.0682,1.0681,1.0694,1.0694,1.0694,0,1.0614,1.0614,1.0625,1.0627,1.0631,1.0634,1.0638,1.0647,1.065,1.0658,1.0658,1.0663,1.0668,1.0674,1.0681,1.0686,1.0689,1.0685,1.069,1.0687,1.0689,1.0688,1.0689,1.0684,1.0684,1.0683,1.0683,0,1.06,1.0604,1.0608,1.0615,1.0618,1.0623,1.0629,1.063,1.0641,1.0644,1.0649,1.0652,1.0659,1.0664,1.0671,1.0675,1.0681,1.0682,1.0682,1.0679,1.0676,1.0678,1.0691,1.0682,1.0682,1.0682,1.0682,1.0682,1.0588,1.0589,1.0597,1.0602,1.0608,1.0613,1.0615,1.0622,1.0626,1.0633,1.0638,1.0643,1.065,1.0659,1.0664,1.0668,1.067,1.067,1.067,1.0669,1.0668,1.0676,1.0669,1.0669,1.0669,1.0669,1.0669,0,1.0575,1.0581,1.0585,1.0593,1.0597,1.0603,1.061,1.0613,1.0617,1.0624,1.0628,1.0634,1.064,1.0648,1.0654,1.0655,1.0658,1.0657,1.0656,1.0657,1.0666,1.0665,1.0654,1.0654,1.0654,1.0654,1.0654,1.0654,1.0568,1.057,1.0576,1.0581,1.0588,1.0592,1.0596,1.0601,1.0606,1.0613,1.0618,1.0623,1.0631,1.0638,1.0643,1.0646,1.0647,1.0645,1.0648,1.0655,1.0657,1.0658,1.0658,1.0645,1.0645,1.064,1.0639,1.0639]},{"header":{"parameterUnit":"m.s-1","parameterCategory":1,"la1":30.2991,"la2":30.254,"lo1":-89.0895,"lo2":-89.0444,"dy":0.0017,"dx":0.0017,"nx":28,"ny":28,"refTime":"2025-11-25T09:00:00:Z","depth":0,"parameterNumber":3,"parameterNumberName":"V-component_of_WINDS"},"data":[0,0,0,0,0,0,0,0,0,0,0,0,0,0,0,0,0,0,0,0,0,0,0,0,0,0,0,0,0,0,0,0,0,0,0,0,0,0,0,0,0,0,0,0,0,0,0,0,0,0,0,0,0,0,0,0,0,0,-6.9176,-6.9177,0,-6.9281,-6.9283,-6.9284,-6.9196,-6.9192,-6.9189,-6.9185,-6.9286,-6.9292,-6.9298,0,0,0,0,0,0,0,0,0,0,0,0,0,-6.8893,-6.8899,-6.9176,-6.9177,-6.9179,-6.9281,-6.9283,-6.9284,-6.9196,-6.9192,-6.9188,-6.9183,-6.9284,-6.9291,-6.9298,0,0,0,0,0,0,0,0,0,0,0,0,0,-6.9009,-6.8901,-6.9176,-6.9148,-6.9146,-6.9281,-6.9283,-6.9284,-6.9197,-6.9192,-6.9186,-6.9181,-6.9281,-6.929,-6.9299,-6.9465,0,0,-6.9327,-6.9331,0,0,0,0,0,0,0,0,-6.9003,-6.902,-6.915,-6.915,-6.9148,-6.922,-6.922,-6.9345,-6.9199,-6.9178,-6.9185,-6.9179,-6.9268,-6.9278,-6.9309,-6.947,-6.9474,-6.9328,-6.9334,-6.9337,-6.934,0,0,0,0,0,0,0,-6.8995,-6.9014,-6.9217,-6.9152,-6.9151,-6.9128,-6.9138,-6.9243,-6.9252,-6.9179,-6.9173,-6.9187,-6.9266,-6.9301,-6.9311,-6.9476,-6.9328,-6.9336,-6.9341,-6.9345,-6.9779,-6.9784,0,0,0,0,0,0,-6.8991,-6.9008,-6.9214,-6.9221,-6.9061,-6.9137,-6.9149,-6.9202,-6.9251,-6.9253,-6.9192,-6.9183,-6.9288,-6.93,-6.9314,-6.9513,-6.9337,-6.9346,-6.9351,-6.9773,-6.978,-6.9787,0,0,0,0,0,0,-6.8985,-6.901,-6.921,-6.9113,-6.9137,-6.9148,-6.9209,-6.9207,-6.9242,-6.926,-6.9261,-6.9226,-6.9284,-6.9301,-6.9429,-6.9515,-6.935,-6.9358,-6.9766,-6.9775,-6.9783,-6.991,0,0,0,0,0,0,-6.8977,-6.9008,-6.9073,-6.9115,-6.9142,-6.9325,-6.9214,-6.9213,-6.9259,-6.9248,-6.9292,-6.9294,-6.9281,-6.9416,-6.9438,-6.9524,-6.9365,-6.9758,-6.977,-6.978,-6.9899,-6.9923,-6.9943,0,0,0,0,0,-6.8967,-6.9102,-6.9076,-6.9102,-6.9224,-6.933,-6.9346,-6.933,-6.9266,-6.933,-6.9342,-6.9293,-6.9502,-6.943,-6.9454,-6.9544,-6.9752,-6.9766,-6.978,-6.9889,-6.9918,-6.9943,0,0,0,0,0,0,-6.9067,-6.9107,-6.9079,-6.9232,-6.9279,-6.9315,-6.9396,-6.9361,-6.9425,-6.9411,-6.9387,-6.9397,-6.9532,-6.9551,-6.947,-6.9708,-6.9617,-6.9636,-6.9691,-6.9719,-6.9741,-6.9734,-6.9373,0,0,0,0,0,-6.9107,-6.9193,-6.9222,-6.9355,-6.938,-6.9385,-6.943,-6.9414,-6.946,-6.9479,-6.95,-6.9545,-6.962,-6.9671,-6.9741,-6.9901,-6.9909,-6.9975,-6.9997,-7.0015,-7.0032,-7.0119,-7.0148,-6.9831,-6.9831,-6.9831,0,0,-6.919,-6.9223,-6.9278,-6.9376,-6.941,-6.9498,-6.9401,-6.9497,-6.9562,-6.9492,-6.9615,-6.9633,-6.9681,-6.9826,-6.989,-6.9845,-7.0122,-7.0033,-7.0047,-7.0054,-7.0136,-7.0166,-7.0192,-6.984,-6.9839,-6.9837,0,0,-6.9386,-6.942,-6.9535,-6.9572,-6.9626,-6.9628,-6.9656,-6.9699,-6.9708,-6.9832,-6.9782,-6.9857,-6.9988,-7.0025,-7.0061,-7.0274,-7.0231,-7.0297,-7.0414,-7.0498,-7.0523,-7.0545,-7.0622,-7.0649,-7.0314,-7.0314,-7.0314,0,-6.9482,-6.9614,-6.9597,-6.9699,-6.9743,-6.9688,-6.9803,-6.9838,-6.9912,-6.9943,-6.9892,-7.0057,-7.0085,-7.0238,-7.0291,-7.0321,-7.0351,-7.0292,-7.0521,-7.0543,-7.0564,-7.0636,-7.0665,-7.0322,-7.0321,-7.032,-7.0319,0,-6.973,-6.9822,-6.9908,-6.9984,-7.0038,-7.0145,-7.0143,-7.02,-7.0179,-7.0187,-7.0313,-7.0346,-7.0423,-7.0458,-7.0437,-7.0608,-7.0579,-7.0525,-7.0433,-7.0602,-7.067,-7.0697,-7.0333,-7.033,-7.0328,-7.0326,0,0,-6.999,-7.0058,-7.009,-7.0124,-7.0181,-7.0251,-7.0355,-7.0433,-7.0482,-7.0535,-7.0622,-7.0735,-7.0686,-7.0727,-7.071,-7.0785,-7.0952,-7.0722,-7.0723,-7.0764,-7.1143,-7.1184,-7.1216,-7.0924,-7.093,-7.0934,-7.1139,0,-7.019,-7.0376,-7.0364,-7.0538,-7.0623,-7.0572,-7.0663,-7.0707,-7.0717,-7.0789,-7.0798,-7.0879,-7.0809,-7.0833,-7.0905,-7.0917,-7.1028,-7.0902,-7.1004,-7.1008,-7.0994,-7.1252,-7.1294,-7.1487,-7.1166,-7.117,-7.1173,0,-7.0447,-7.0513,-7.0696,-7.0741,-7.0776,-7.0859,-7.093,-7.1,-7.1048,-7.105,-7.1098,-7.1069,-7.1173,-7.1079,-7.1222,-7.1137,-7.1178,-7.119,-7.1197,-7.1206,-7.1101,-7.1268,-7.1548,-7.1577,-7.1215,-7.1211,-7.1208,0,-7.062,-7.0753,-7.0881,-7.0911,-7.0967,-7.1027,-7.1052,-7.1095,-7.1144,-7.1205,-7.1236,-7.1308,-7.1347,-7.1402,-7.1394,-7.1326,-7.154,-7.1444,-7.1543,-7.1544,-7.159,-7.1588,-7.1881,-7.1617,-7.1616,-7.1616,-7.1615,0,-7.0844,-7.0958,-7.0959,-7.1038,-7.1164,-7.1149,-7.1273,-7.1292,-7.1331,-7.1411,-7.137,-7.1445,-7.1429,-7.1503,-7.1497,-7.1617,-7.1634,-7.1638,-7.1635,-7.1642,-7.1642,-7.1668,-7.1655,-7.1623,-7.1622,-7.162,-7.1619,0,-7.1058,-7.1064,-7.1199,-7.1242,-7.1256,-7.1347,-7.1383,-7.1456,-7.1463,-7.1565,-7.1587,-7.1598,-7.1684,-7.1681,-7.1777,-7.1772,-7.192,-7.1901,-7.1905,-7.1901,-7.2,-7.1991,-7.2322,-7.2365,-7.2072,-7.2075,-7.2077,0,-7.1201,-7.1288,-7.1342,-7.1394,-7.1425,-7.1508,-7.1558,-7.1547,-7.16,-7.1663,-7.1728,-7.1811,-7.1876,-7.2015,-7.203,-7.2104,-7.2086,-7.2197,-7.2097,-7.2102,-7.2089,-7.2084,-7.2093,-7.2217,-7.222,-7.2223,-7.2225,0,-7.1454,-7.1453,-7.1528,-7.1606,-7.1667,-7.1726,-7.178,-7.1824,-7.1818,-7.188,-7.1969,-7.202,-7.212,-7.2203,-7.2274,-7.2297,-7.2261,-7.2257,-7.2284,-7.2292,-7.2291,-7.2293,-7.1959,-7.2249,-7.2247,-7.2245,-7.2244,-7.2243,-7.1637,-7.1713,-7.1764,-7.1849,-7.1889,-7.1941,-7.2013,-7.2031,-7.2105,-7.2188,-7.2176,-7.2276,-7.2321,-7.2414,-7.2444,-7.2521,-7.2481,-7.252,-7.253,-7.2539,-7.2551,-7.2279,-7.2533,-7.2533,-7.2532,-7.2531,-7.2531,0,-7.1889,-7.192,-7.1998,-7.2077,-7.2144,-7.2107,-7.2165,-7.2223,-7.2312,-7.236,-7.2426,-7.2528,-7.2608,-7.2631,-7.2708,-7.2764,-7.275,-7.2785,-7.2781,-7.2787,-7.2582,-7.2551,-7.2796,-7.2796,-7.2796,-7.2796,-7.2796,-7.2796,-7.2028,-7.2155,-7.216,-7.2306,-7.2335,-7.2434,-7.2471,-7.2519,-7.2557,-7.2674,-7.2742,-7.2757,-7.2794,-7.2874,-7.2945,-7.2949,-7.2979,-7.3022,-7.302,-7.2828,-7.2801,-7.2776,-7.2747,-7.3029,-7.3029,-7.3218,-7.322,-7.3222]}]]